This is the latest recevied weather packets stored in our database for station/object KK6LVQ-13. If no packets are shown the sender has not sent any weather packets the latest 10 day(s).
| Time | Temp. | Humidity | Pressure | Rain* | Wind** | Luminosity | Snow |
|---|---|---|---|---|---|---|---|
| 1777755291 | 16.67° C | 76% | 1018.4 hPa | 0 mm | - | 414 W/m² | - |
| 1777754988 | 16.67° C | 77% | 1018.6 hPa | 0 mm | - | 381 W/m² | - |
| 1777754685 | 16.11° C | 78% | 1018.8 hPa | 0 mm | - | 853 W/m² | - |
| 1777754383 | 17.22° C | 77% | 1018.6 hPa | 0 mm | - | 494 W/m² | - |
| 1777754080 | 16.67° C | 77% | 1018.8 hPa | 0 mm | - | 570 W/m² | - |
| 1777753776 | 16.11° C | 77% | 1018.9 hPa | 0 mm | - | 504 W/m² | - |
| 1777753473 | 16.67° C | 78% | 1018.8 hPa | 0 mm | - | 359 W/m² | - |
| 1777753171 | 16.67° C | 77% | 1018.9 hPa | 0 mm | - | 340 W/m² | - |
| 1777752867 | 16.67° C | 78% | 1019.1 hPa | 0 mm | - | 342 W/m² | - |
| 1777752564 | 16.67° C | 77% | 1019.1 hPa | 0 mm | - | 365 W/m² | - |
| 1777752259 | 16.11° C | 77% | 1019.4 hPa | 0 mm | - | 394 W/m² | - |
| 1777751958 | 16.67° C | 77% | 1019.2 hPa | 0 mm | - | 360 W/m² | - |
| 1777751654 | 16.67° C | 78% | 1019.2 hPa | 0 mm | - | 459 W/m² | - |
| 1777751351 | 16.67° C | 77% | 1019.4 hPa | 0 mm | - | 448 W/m² | - |
| 1777751048 | 16.11° C | 78% | 1019.3 hPa | 0 mm | - | 454 W/m² | - |
| 1777750744 | 15.56° C | 81% | 1019.3 hPa | 0 mm | - | 435 W/m² | - |
| 1777750441 | 16.11° C | 78% | 1019.3 hPa | 0 mm | - | 410 W/m² | - |
| 1777750136 | 15.56° C | 78% | 1019.7 hPa | 0 mm | - | 245 W/m² | - |
| 1777749834 | 16.11° C | 78% | 1019.3 hPa | 0 mm | - | 311 W/m² | - |
| 1777749530 | 15.56° C | 81% | 1019.6 hPa | 0 mm | - | 306 W/m² | - |
| 1777749229 | 15.56° C | 80% | 1019.7 hPa | 0 mm | - | 368 W/m² | - |
| 1777748926 | 15.56° C | 79% | 1019.6 hPa | 0 mm | - | 307 W/m² | - |
| 1777748623 | 15.56° C | 79% | 1019.6 hPa | 0 mm | - | 293 W/m² | - |
| 1777748319 | 15° C | 81% | 1019.8 hPa | 0 mm | - | 306 W/m² | - |
| 1777748014 | 15° C | 82% | 1019.6 hPa | 0 mm | - | 291 W/m² | - |
* Rain latest hour (hover to see other rain measurements)
** Current wind speed in m/s (hover to see current wind gust speed)